sat.trackr.live / text

‹ back to catalog

STARLINK-4082

NORAD 52658 · 2022-053C

PAYLOAD ACTIVE UNKNOWN

§ Identity

Operator
Country
US
Launch date
2022-05-18
Launch site
AFETR
Launch vehicle
Mass (kg)
RCS (m²)

Purposes: comms

External: N2YO · Heavens-Above · Gunter

§ Orbital elements

Epoch: 2026-05-25T01:40:22.740096Z

Period
95.44 min
Inclination
53.2136°
Eccentricity
0.0001020
Mean motion
15.08839182 rev/d
Perigee alt
539.0 km
Apogee alt
540.5 km
Semi-major
6,917.9 km
B*
-5.4684e-6
RAAN
171.2378°
Arg perigee
74.1130°
Mean anomaly
285.9975°
Rev number
22,276

§ Raw data

STARLINK-40821 52658U 22053C   26145.06970764 -.00000375  00000+0 -54684-5 0  99932 52658  53.2136 171.2378 0001020  74.1130 285.9975 15.08839182222765

JSON: /api/v1/satellites/52658 · /tle

For live sub-satellite position, see the globe view (requires WebGL).

§ Visibility from observer

Set your observer location to see the next 7 days of passes ≥ 10°. The values pass through the URL so the page stays shareable.

No JS? Fill the form by hand. The geolocation button needs JavaScript.